Regional Weather Roundup
Issued by NWS Northern Indiana

Home | Current Version | Previous Version | Graphics & Text | Print | Product List | Glossary On
Versions: 1 2 3 4 5 6 7 8 9 10 11 12 13 14 15 16 17 18 19 20 21 22 23 24 25 26 27 28 29 30 31 32 33 34 35 36 37 38 39 40 41 42 43 44 45 46 47 48 49 50
000
ASUS43 KIWX 101300
RWRIWX

KIWX WEATHER ROUNDUP
NATIONAL WEATHER SERVICE NORTHERN INDIANA
800 AM EST WED FEB 10 2016

NOTE: "FAIR" INDICATES FEW OR NO CLOUDS BELOW 12,000 FEET WITH NO
SIGNIFICANT WEATHER AND/OR OBSTRUCTIONS TO VISIBILITY.

* THESE STATIONS ARE NOT UNDER NWS QUALITY CONTROL. THEY ALSO MAY NOT
  REPORT WEATHER SUCH AS PRECIPITATION OR FOG.

INZ001>027-101400-
NORTHERN INDIANA

CITY           SKY/WX    TMP DP  RH WIND       PRES   REMARKS
GARY*          MOCLDY    12   0  57 W14       30.00R WCI  -3
SOUTH BEND     CLOUDY    17  13  84 NW8       29.90R WCI   7
ELKHART*       LGT SNOW  18  14  86 NW8       29.89R WCI   7
GOSHEN         LGT SNOW  18  13  80 W12       29.88R WCI   5
MONTICELLO*    CLEAR      9   1  70 W9        29.99R WCI  -4
ANGOLA*          N/A     18  16  93 NW3       29.82S
FORT WAYNE     LGT SNOW  18  11  74 W15       29.89S WCI   4
PERU/GRISSOM   CLOUDY    13   8  79 W14       29.93R WCI  -2

$$
INZ028>050-101400-
CENTRAL INDIANA

CITY           SKY/WX    TMP DP  RH WIND       PRES   REMARKS
LAFAYETTE      PTCLDY     8   2  76 W12       30.02R WCI  -7
KOKOMO*        CLOUDY    12   7  79 W17       29.95R WCI  -5
MUNCIE*        LGT SNOW  14   8  77 W13       29.93S WCI   0
INDIANAPOLIS   FLURRIES  12   5  73 W16       30.00R WCI  -5

$$
MIZ043>046-050>051-056>058-064>065-071>073-077>080-101400-
SOUTHWEST LOWER MICHIGAN

CITY           SKY/WX    TMP DP  RH WIND       PRES   REMARKS
BATTLE CREEK   CLOUDY    17   9  70 NW10      29.83R WCI   5
BENTON HARBOR  LGT SNOW  20  12  71 W15G23    29.90S WCI   6
COLDWATER*     FLURRIES  19  14  82 NW7       29.83R WCI   9
HILLSDALE*     LGT SNOW  17  14  86 NW8       29.79S WCI   7
HOLLAND        LGT SNOW  18  14  84 NW7       29.87S VSB 3/4 WCI   9
GRAND RAPIDS   FLURRIES  18  12  77 NW14G21   29.83S WCI   4
KALAMAZOO      LGT SNOW  18  13  80 NW10      29.84R VSB 1   WCI   6
STURGIS*       LGT SNOW  18  14  84 NW9       29.84R WCI   7
THREE RIVERS*  LGT SNOW  19  15  86 NW10      29.86R WCI   7

$$
OHZ001>008-015>018-024>025-101400-
NORTHWEST OHIO

CITY           SKY/WX    TMP DP  RH WIND       PRES   REMARKS
DEFIANCE       LGT SNOW  20  15  81 W5        29.86R WCI  13
FINDLAY        CLOUDY    18  13  80 W17       29.83R WCI   3
TOLEDO EXPRESS MOCLDY    19  12  74 W13       29.82R WCI   6
TOLEDO METCALF CLOUDY    21  12  68 NW20      29.83R WCI   6
LIMA           LGT SNOW  15  11  83 W18       29.86R FOG     WCI  -2

$$
AND FOR LAKE MICHIGAN COASTAL AND OPEN LAKE BUOY OBSERVATIONS

STATION/POSITION TEMP    WIND        PRES    VSBY  WAVE
                 AIR SEA DIR/SP/G                  HT/PER
                 (F)     (DEG/KT/KT) (MB)    (MI)  (FT/S)
CALUMET HARBOR    11     290/  8/ 12 1015.2R
MICHIGAN CITY     18     270/ 23/ 25   N/A
BURNS HARBOR      17     320/ 17/ 25 1014.9R
SAINT JOSEPH      21     300/ 19/ 25 1012.9S

$$
&&



USA.gov is the U.S. government's official web portal to all federal, state and local government web resources and services.